USHUAIA_(ARG-NAVY) current weather conditions

sailwx.info

Wind from 230 at 13 knots

Air temperature 1.0° C
Visibility: greater than 5.4 NM
Dewpoint -5.0° C

Last reported at 2019-Aug-18 12:00 UTC.
Time now 2019-Aug-18 13:21 UTC

Location: S 54°51' W 068°18'.
View on Google Maps.

See reports from other nearby stations

  
Tides and Currents Weather Stations Pressure Air Temp Water Temp Dewpoint Dewpoint Depression Visibility Wind Speed Wind Dir Waves Ship Positions
date/time (UTC)wind fromknots sea level pressurealtimeterstation pressurevisibilityair tempwater tempwave heightnotes
2019-Aug-18 12:00 230 13 5.4 1.0
2019-Aug-18 11:00 270 11 5.4 1.0
2019-Aug-18 10:00 230 11 5.4-0.0
2019-Aug-18 09:00 230 14 5.4 1.0
2019-Aug-18 08:00 230 15 5.4 1.0
2019-Aug-18 07:00 230 14 5.4 1.0
2019-Aug-18 06:00 230 11 5.4 1.0
2019-Aug-18 05:00 230 13 5.4 1.0
2019-Aug-18 04:00 230 13 5.4 1.0
2019-Aug-18 03:00 230 14 5.4 1.0
2019-Aug-18 02:00 230 13 5.4 1.0
2019-Aug-18 01:00 230 15 5.4 1.0
2019-Aug-18 00:00 230 18 5.4 1.0
2019-Aug-17 23:00 230 19 5.4 2.0
2019-Aug-17 22:00 230 13 5.4 2.0
2019-Aug-17 21:00 230 14 5.4 2.0
2019-Aug-17 20:00 230 14 5.4 3.0
2019-Aug-17 19:00 230 18 5.4 3.0
2019-Aug-17 18:00 230 13 gusting 26 5.4 3.0
2019-Aug-17 17:00 230 15 5.4 3.0
2019-Aug-17 16:00 230 15 5.4 2.0
2019-Aug-17 15:00 230 11 gusting 20 5.4 3.0
2019-Aug-17 14:00 230 11 gusting 20 5.4 3.0
2019-Aug-17 13:00 230 14 5.4 3.0
2019-Aug-17 12:00 230 9 gusting 20 5.4 3.0
2019-Aug-17 11:00 180 5 5.4 2.0 Showers in the vicinity.
2019-Aug-17 10:00 140 11 gusting 20 5.4 2.0
2019-Aug-17 09:00 200 11 5.4 2.0 Showers in the vicinity.
2019-Aug-17 08:00 200 15 5.4 2.0 Showers in the vicinity.
2019-Aug-17 07:00 180 6 5.4 2.0 Showers in the vicinity.
2019-Aug-17 06:00 230 14 5.4 2.0 Showers in the vicinity.
2019-Aug-17 05:00 230 17 5.4 2.0 Showers in the vicinity.
2019-Aug-17 04:00 200 11 5.4 2.0 Showers in the vicinity.
2019-Aug-17 03:00 140 14 5.4 2.0 Showers in the vicinity.
2019-Aug-17 02:00 180 15 5.4 2.0 Light drizzle.
2019-Aug-17 01:00 230 20 5.4 2.0 Light drizzle.
2019-Aug-17 00:00 230 22 5.4 2.0 Showers in the vicinity.
2019-Aug-16 23:00 230 18 5.4 3.0
2019-Aug-16 22:00 230 20 5.4 3.0
2019-Aug-16 21:00 230 21 5.4 3.0
2019-Aug-16 20:00 230 25 5.4 4.0
2019-Aug-16 19:00 230 24 5.4 4.0
2019-Aug-16 18:00 230 19 5.4 4.0
2019-Aug-16 17:00 230 20 5.4 3.0
2019-Aug-16 16:00 230 14 5.4 3.0
2019-Aug-16 15:00 230 14 5.4 3.0
2019-Aug-16 14:00 250 12 5.4 2.0
2019-Aug-16 13:00 270 9 5.4 1.0